This demonstration page uses our WeatherBlox Daily Observations layout. Learn more.

Left ArrowRight Arrow

Hourly Observations for May 24, 2020

Temp ( °F °C ) Dew Point ( °F °C ) Humidity (%) Winds ( mph kmh ) Pressure ( in mb ) Visibility ( mi km ) Precip ( " mm )
12:53 am 00:53 Clear 68 20 67 19.4 96 96 N N/A 29.99 1016 10 16.0934 N/A
1:53 am 01:53 Clear 67 19.4 66 18.9 97 97 N N/A 29.97 1015 10 16.0934 N/A
2:53 am 02:53 Clear 64 17.8 63 17.2 96 96 N N/A 29.96 1015 10 16.0934 N/A
3:53 am 03:53 Clear 63 17.2 62 16.7 97 97 N N/A 29.97 1015 7 11.26538 N/A
4:28 am 04:28 Clear with Mist and Fog 62 16.7 62 16.7 100 100 N N/A 29.98 1015 1.75 2.816345 N/A
4:35 am 04:35 Clear with Mist and Fog 62 16.7 62 16.7 100 100 N N/A 29.98 1015 1 1.60934 N/A
4:40 am 04:40 Clear with Mist and Fog 62 16.7 62 16.7 100 100 N N/A 29.98 1015 2 3.21868 N/A
4:53 am 04:53 Clear with Mist and Fog 62 16.7 62 16.7 100 100 N N/A 29.98 1015 6 9.65604 N/A
5:06 am 05:06 Clear with Mist and Fog 61 16.1 61 16.1 100 100 N N/A 29.99 1016 2 3.21868 N/A
5:08 am 05:08 Clear with Mist and Fog 61 16.1 61 16.1 100 100 N N/A 29.98 1015 1.5 2.41401 N/A
5:40 am 05:40 Mostly Cloudy with Mist and Fog 61 16.1 61 16.1 100 100 N N/A 29.99 1016 1 1.60934 N/A
5:53 am 05:53 Clear with Mist and Fog 61 16.1 61 16.1 100 100 N N/A 30 1016 0.75 1.207005 N/A
6:00 am 06:00 Clear with Mist and Fog 61 16.1 61 16.1 100 100 N N/A 30 1016 1.75 2.816345 N/A
6:02 am 06:02 Clear with Mist and Fog 61 16.1 61 16.1 100 100 N N/A 30 1016 3 4.82802 N/A
6:15 am 06:15 Clear with Mist and Fog 60 15.6 60 15.6 100 100 N N/A 30.01 1016 2.5 4.02335 N/A
6:30 am 06:30 Sunny with Mist and Fog 61 16.1 61 16.1 100 100 N N/A 30.01 1016 1.5 2.41401 N/A
6:34 am 06:34 Partly Cloudy with Mist and Fog 60 15.6 60 15.6 100 100 N N/A 30.02 1016 1.75 2.816345 N/A
6:37 am 06:37 Mostly Cloudy with Mist and Fog 60 15.6 60 15.6 100 100 N N/A 30.02 1016 1 1.60934 N/A
6:44 am 06:44 Mostly Cloudy with Fog 60 15.6 60 15.6 100 100 N N/A 30.02 1016 0.25 0.402335 N/A
6:53 am 06:53 Mostly Cloudy with Mist and Fog 61 16.1 61 16.1 100 100 N N/A 30.01 1016 0.75 1.207005 N/A
6:55 am 06:55 Partly Cloudy with Mist and Fog 61 16.1 61 16.1 100 100 N N/A 30.01 1016 1.25 2.011675 N/A
7:02 am 07:02 Mostly Cloudy with Mist and Fog 61 16.1 61 16.1 100 100 N N/A 30.01 1016 0.75 1.207005 N/A
7:09 am 07:09 Partly Cloudy with Mist and Fog 61 16.1 61 16.1 100 100 N N/A 30.02 1017 1.5 2.41401 N/A
7:11 am 07:11 Partly Cloudy with Mist and Fog 61 16.1 61 16.1 100 100 N N/A 30.02 1017 2 3.21868 N/A
7:19 am 07:19 Sunny with Mist and Fog 62 16.7 62 16.7 100 100 N N/A 30.02 1017 3 4.82802 N/A
7:53 am 07:53 Sunny 65 18.3 65 18.3 100 100 E 3 6 30.03 1017 8 12.87472 N/A
8:53 am 08:53 Sunny 71 21.7 67 19.4 87 87 E 3 6 30.04 1017 10 16.0934 N/A
9:53 am 09:53 Sunny 76 24.4 69 20.6 79 79 WSW 3 6 30.05 1018 10 16.0934 N/A
10:53 am 10:53 Sunny 79 26.1 70 21.1 74 74 N N/A 30.04 1017 10 16.0934 N/A
11:53 am 11:53 Sunny 82 27.8 70 21.1 67 67 N N/A 30.04 1017 10 16.0934 N/A
12:53 pm 12:53 Mostly Sunny 83 28.3 71 21.7 67 67 VRB 3 6 30.04 1017 10 16.0934 N/A
1:53 pm 13:53 Mostly Cloudy 83 28.3 69 20.6 63 63 ESE 3 6 30.02 1017 10 16.0934 N/A
2:53 pm 14:53 Mostly Sunny 87 30.6 67 19.4 51 51 SW 5 7 30.01 1016 10 16.0934 N/A
3:53 pm 15:53 Mostly Sunny 87 30.6 67 19.4 51 51 N N/A 29.98 1015 10 16.0934 N/A
4:53 pm 16:53 Sunny 82 27.8 71 21.7 69 69 W 5 7 29.97 1015 10 16.0934 N/A
5:53 pm 17:53 Mostly Cloudy with Light Rain 77 25 67 19.4 71 71 VRB 3 6 29.99 1016 10 16.0934 0.001 0.001
6:53 pm 18:53 Sunny 78 25.6 62 16.7 58 58 VRB 3 6 29.97 1015 10 16.0934 0.01 0.254
7:53 pm 19:53 Sunny 74 23.3 64 17.8 71 71 N N/A 30 1016 10 16.0934 N/A
8:53 pm 20:53 Sunny 73 22.8 63 17.2 71 71 VRB 3 6 30.01 1016 10 16.0934 N/A
9:53 pm 21:53 Mostly Clear 71 21.7 64 17.8 79 79 N N/A 30 1016 10 16.0934 0.001 0.001
10:53 pm 22:53 Clear 68 20 64 17.8 87 87 N N/A 30.01 1016 10 16.0934 N/A
11:53 pm 23:53 Mostly Clear 68 20 65 18.3 90 90 W 5 7 30.02 1017 10 16.0934 N/A

Powered by AerisWeather